Torna al catalogo

SL-8 R/B

AttivoPO
NORAD 21876·ROCKET BODY·🇷🇺 Russia

Lanciato Feb 17, 1992 da Plesetsk Cosmodrome

Loading…

Prossimi Passaggi (prossime 24 ore)

TLE

AggiornatoSource: Space-Track

Epoca: Sep 14, 2026, 15:11 UTC

1 21876U 92008B   26257.63289763  .00000107  00000-0  94879-4 0  9998
2 21876  82.9262 127.2951 0034107 328.9787  59.6688 13.75992255735400

Traccia SL-8 R/B in tempo reale con AllMySat

Download on the App Store